Wind_Speed
35 35 35 34 34 33 33 32 31 30 29 29 29 28 27 26 26 25 25 24 23 22 22 21 21 21 21 22 25 27 29 30 31 31 32 32 32 33 33 33 33 32 32 31 30 30 28 27 26 26 26 25 25 26 27 28 27 27 28 29 30 31 31 30 29 28 27 26 27
35 35 35 35 34 33 33 32 31 30 29 29 28 28 27 26 25 25 24 24 23 21 21 20 20 19 19 20 22 24 26 27 29 29 30 30 30 31 32 32 32 32 31 31 30 29 28 27 27 26 26 26 25 26 27 28 28 28 28 29 30 31 31 31 29 28 27 27 27
35 35 35 35 34 34 33 32 31 31 30 29 28 28 27 26 25 25 24 23 22 21 20 20 19 18 18 18 20 21 23 24 26 27 27 28 28 29 30 30 31 30 30 29 29 28 28 28 27 27 26 25 25 26 27 27 28 28 28 29 30 31 31 31 30 29 29 29 29
34 35 35 34 34 34 33 33 32 32 31 30 28 27 26 26 25 24 24 23 22 21 20 19 18 18 17 17 18 19 20 22 23 24 25 25 26 26 27 28 28 28 28 28 28 28 28 28 27 27 26 26 26 26 27 27 27 28 28 29 30 31 31 31 31 31 30 30 29
34 34 34 34 34 33 33 33 33 32 31 30 29 28 26 25 25 24 23 23 22 21 20 19 18 17 17 17 17 18 19 20 21 22 23 23 23 24 24 25 26 26 26 26 27 27 27 27 27 26 26 26 27 27 28 28 28 29 30 30 31 31 31 30 30 29 27 26 26
34 33 33 32 32 32 32 32 32 32 31 30 29 28 27 26 25 24 24 23 22 21 19 18 17 16 16 16 16 16 17 18 20 21 21 22 22 22 23 24 24 24 24 25 25 25 25 25 25 25 26 27 27 27 27 28 28 29 29 28 28 27 26 25 24 24 23 22 23
34 33 32 31 31 31 31 31 31 31 31 30 29 28 27 26 25 24 24 23 21 20 19 17 17 17 17 16 16 16 17 18 19 20 21 22 22 22 23 22 22 22 22 22 22 22 22 22 22 22 23 23 23 23 24 24 24 24 23 22 22 21 20 20 21 22 22 23 24
33 32 30 30 30 30 30 31 31 30 30 29 28 27 26 25 25 24 23 22 21 20 18 18 18 18 17 16 16 16 18 19 20 21 21 22 22 21 21 20 19 19 19 19 19 19 18 18 18 18 18 18 18 18 19 19 19 18 18 18 18 19 20 21 22 23 24 25 26
32 31 30 29 29 30 30 30 30 29 29 28 27 26 25 24 24 23 23 22 20 19 19 19 19 18 16 16 16 16 18 19 20 20 20 20 19 18 18 17 17 17 17 17 16 16 16 16 15 15 16 16 16 17 17 17 16 16 17 17 18 19 20 21 22 23 24 26 27
32 30 29 29 29 29 29 29 28 28 27 26 25 25 24 23 23 22 22 21 20 20 20 20 19 17 16 16 16 16 17 18 18 19 18 18 17 17 16 16 16 16 15 15 15 15 15 15 15 16 16 17 17 17 17 17 16 16 16 18 18 19 19 20 21 22 23 24 25
31 30 30 29 29 29 29 28 27 27 26 25 24 23 23 22 22 21 20 21 21 20 20 19 18 17 16 16 16 17 17 17 17 17 17 17 16 16 16 16 16 15 15 15 15 16 17 17 18 19 19 19 19 19 18 18 18 18 18 19 19 19 19 19 20 20 21 22 21
31 30 30 29 29 29 29 28 27 26 25 24 23 23 22 21 20 20 21 21 21 21 20 18 17 16 16 17 17 17 18 18 17 17 17 17 17 17 17 16 16 15 15 15 16 17 18 19 20 20 20 20 20 20 20 20 20 20 20 19 19 18 18 18 18 19 19 19 19
31 30 30 29 29 29 29 28 27 25 24 23 23 22 21 20 20 21 22 22 21 20 19 18 17 17 17 17 18 18 18 18 18 17 17 17 17 17 17 16 16 16 16 17 17 18 18 19 19 19 19 20 20 20 20 21 21 21 20 20 19 18 18 18 17 17 16 17 17
31 31 30 30 30 29 29 28 26 25 24 23 22 22 21 20 21 22 22 21 20 19 18 17 17 17 17 17 18 18 18 18 18 17 17 17 17 17 17 16 17 17 17 17 18 18 18 18 18 18 18 19 20 20 21 21 21 20 19 19 18 18 18 17 17 16 16 16 17
31 31 31 31 31 30 29 28 26 25 24 23 22 21 21 21 22 23 22 20 19 18 17 17 17 18 18 18 18 18 18 18 18 18 17 17 17 17 17 17 17 17 17 17 17 17 17 17 17 17 17 17 18 19 19 19 19 18 17 17 17 18 18 18 17 17 16 17 18
32 32 32 32 31 30 29 28 26 25 23 22 22 22 22 23 24 23 22 20 18 18 17 18 19 20 20 19 18 18 18 19 19 19 19 18 18 19 18 18 18 17 16 16 17 17 17 16 16 15 16 16 16 17 16 16 15 15 16 16 17 17 17 17 17 17 17 17 18
33 33 33 32 31 30 29 27 26 24 23 22 22 23 24 25 25 23 21 20 19 19 20 21 21 21 21 20 19 18 18 19 20 20 20 20 19 19 19 19 18 17 17 17 17 17 17 16 15 15 14 14 14 14 13 13 13 14 14 15 15 15 16 16 16 16 16 17 17
33 33 33 32 31 30 29 27 26 24 24 23 24 25 26 26 24 23 22 21 21 22 23 23 23 22 20 19 18 18 18 19 19 19 19 19 19 18 18 18 17 17 17 17 17 17 17 16 15 15 14 14 13 13 13 13 13 13 13 14 14 14 14 14 15 16 16 17 17
34 33 33 32 31 29 28 27 26 25 24 25 26 26 26 25 24 23 23 22 23 24 24 23 22 20 19 19 18 18 18 18 18 17 17 17 17 17 16 16 15 15 16 16 17 16 16 16 15 15 15 14 14 14 13 13 13 13 13 13 13 13 13 14 15 16 16 17 17
34 33 33 31 30 29 28 26 25 25 25 26 26 26 26 25 24 24 23 23 23 24 23 22 20 19 19 19 19 19 19 18 17 16 16 16 16 15 14 13 13 13 13 14 14 14 14 14 14 14 14 14 13 13 13 13 13 13 13 13 13 13 13 14 15 16 16 17 17
34 33 32 31 30 28 27 26 25 26 26 26 26 26 26 25 24 23 23 23 23 22 21 20 19 19 19 19 19 19 19 18 17 16 16 16 15 14 13 11 11 11 12 12 12 12 12 12 12 12 12 12 12 12 12 12 12 12 12 12 12 13 13 14 15 15 16 16 16
33 32 31 30 29 28 27 26 26 26 26 26 26 26 26 25 23 22 22 22 22 21 20 19 19 19 19 19 19 19 18 17 16 16 16 15 13 12 12 11 11 11 11 11 10 10 10 10 10 10 10 10 10 11 11 11 11 11 11 12 12 13 14 14 14 14 14 15 15
32 31 30 29 29 28 27 26 26 26 26 26 25 25 25 24 23 22 21 21 21 20 20 19 19 19 20 19 19 18 17 16 15 15 14 13 13 12 12 12 11 11 10 10 10 9 9 9 9 9 9 9 10 10 11 11 11 11 12 12 13 13 14 14 13 13 13 14 14
32 30 30 29 28 28 27 27 26 26 26 26 25 25 24 23 23 22 21 21 20 20 20 21 21 21 20 19 17 16 15 14 14 14 13 13 12 12 12 12 11 10 9 9 9 8 9 9 9 9 10 10 10 10 11 11 12 13 13 14 14 14 13 12 12 12 12 13 13
31 30 29 29 28 28 27 27 27 27 27 26 25 24 23 24 23 23 22 22 21 21 22 23 23 22 20 18 16 14 13 13 13 13 13 12 12 12 12 11 10 9 8 8 8 8 8 9 10 10 11 11 10 10 11 12 13 14 15 15 15 14 13 12 11 11 12 12 12
30 30 29 29 29 28 28 28 28 28 27 26 25 24 24 24 24 24 24 24 24 24 24 24 23 21 19 18 16 15 14 14 14 13 13 12 11 11 11 9 8 8 7 7 7 7 8 9 10 11 11 11 10 11 11 13 14 15 15 15 14 13 11 11 10 11 12 12 12
30 30 30 29 29 29 29 29 29 29 28 27 25 24 25 25 26 26 26 26 25 24 24 23 21 20 19 18 17 16 16 16 15 14 12 11 11 10 9 8 7 7 7 7 7 8 8 9 10 10 10 9 10 10 12 13 14 14 14 13 11 10 10 10 10 11 12 12 11
31 30 30 30 30 30 30 30 30 30 29 27 26 25 26 27 27 28 27 27 25 24 23 22 20 19 18 18 17 17 17 16 15 13 12 11 10 8 7 7 6 7 7 7 7 8 8 9 8 8 8 8 9 10 11 12 12 12 11 9 8 8 8 9 9 10 11 10 10
31 31 31 31 31 32 32 32 32 31 29 27 26 26 27 28 28 28 27 26 25 24 22 21 20 19 18 17 17 17 16 15 14 12 11 10 9 7 7 6 7 7 7 7 7 8 8 7 7 7 7 8 8 9 10 10 9 8 7 6 5 6 7 8 8 9 9 8 8
32 32 33 33 33 33 33 33 32 31 30 28 27 27 28 28 28 27 27 26 25 23 22 21 20 19 18 17 16 16 15 13 12 11 10 9 7 6 6 7 7 7 7 7 7 7 7 7 7 7 7 7 8 8 8 8 7 5 5 4 4 5 6 6 7 7 7 7 8
33 34 35 35 35 35 34 33 33 31 30 29 28 27 28 28 27 27 26 26 24 23 22 21 19 18 17 16 15 14 13 12 11 10 9 7 6 6 7 8 8 8 7 7 7 6 6 6 7 7 7 8 8 8 7 6 4 4 3 4 4 4 5 6 6 6 7 8 9
36 36 36 37 36 36 35 34 33 32 30 29 28 27 27 27 27 26 26 25 24 23 21 20 18 17 16 15 14 13 12 11 10 9 7 6 6 7 8 8 8 7 7 6 6 5 6 6 7 7 7 7 7 6 5 4 3 3 3 4 4 5 5 5 6 7 8 8 9
37 38 38 38 37 36 35 34 33 32 30 29 28 27 27 27 26 26 25 24 23 21 20 18 17 17 16 15 14 13 12 11 10 8 7 7 7 8 8 7 6 5 5 4 4 4 5 6 7 7 7 6 5 5 4 3 3 3 3 4 4 5 6 6 7 7 8 8 9
39 39 39 38 38 37 36 34 33 31 30 28 27 27 26 26 26 25 24 23 22 21 19 18 17 16 16 15 14 13 12 11 9 8 7 7 7 6 5 4 3 2 2 2 3 4 5 6 7 6 5 4 3 3 2 2 2 3 3 4 5 6 6 6 7 7 8 8 8
40 40 39 39 38 37 35 34 32 30 29 28 27 27 26 25 25 24 23 22 21 20 19 18 17 16 16 15 14 13 12 10 9 7 7 6 5 5 4 3 2 2 3 4 4 5 5 6 5 5 3 2 1 1 1 2 2 3 4 5 6 6 6 7 7 7 7 7 8
40 39 39 38 37 35 34 32 31 29 28 27 27 27 26 25 24 23 22 22 21 20 19 18 17 17 16 15 14 13 11 9 8 7 6 6 5 4 4 3 3 3 4 5 5 5 5 4 4 3 2 1 0 1 1 2 3 4 5 5 6 6 6 6 6 7 7 7 7
38 38 37 36 35 33 32 30 29 28 28 28 27 27 26 25 24 23 22 21 20 19 18 17 17 16 15 14 13 12 10 8 7 7 6 6 5 4 4 3 4 4 5 5 5 4 4 4 3 2 2 2 1 2 2 3 4 4 5 5 6 6 6 6 6 6 6 6 7
36 35 34 33 32 31 29 28 28 28 28 28 28 27 26 25 24 23 22 20 19 18 17 17 16 16 15 13 12 11 9 8 7 7 6 5 5 4 4 5 6 6 6 5 5 5 4 4 4 3 3 3 3 3 3 4 4 5 5 5 6 6 5 5 5 5 5 6 7
34 33 31 30 29 29 28 28 28 28 28 28 28 27 25 24 23 22 21 19 18 17 16 16 15 15 14 13 12 10 9 8 8 7 6 5 5 6 6 7 7 7 7 6 5 5 5 5 5 4 4 4 4 4 4 4 5 5 5 5 6 6 6 5 5 5 5 6 6
31 30 29 28 27 27 28 28 28 28 28 27 27 26 25 24 23 21 20 18 17 16 15 15 14 13 13 12 11 10 10 9 8 7 7 7 7 8 8 8 8 8 7 7 6 6 6 6 5 5 4 4 4 4 4 5 5 5 5 5 5 5 5 5 4 4 5 5 6
29 28 28 27 27 27 27 28 28 27 27 26 25 24 24 22 21 20 19 18 17 16 15 14 13 13 12 11 11 10 10 9 9 8 9 9 9 9 9 9 9 9 8 8 7 7 7 6 6 5 5 4 4 4 4 5 5 5 5 5 5 5 4 4 4 4 5 5 6
Wind_Direction
208 208 208 209 209 209 209 211 213 215 216 216 216 216 216 215 215 216 219 222 225 228 231 232 231 229 226 224 222 222 223 224 225 226 227 228 228 228 228 230 231 233 235 237 238 239 239 238 238 238 239 240 242 246 248 248 247 246 247 251 255 258 261 263 265 267 266 264 263
208 209 209 209 209 209 209 210 212 213 215 217 217 217 216 215 214 216 218 222 225 229 232 232 232 231 229 227 225 224 224 224 225 226 227 228 228 229 229 230 232 233 235 237 238 238 238 238 238 238 239 242 246 249 252 254 253 251 249 251 254 258 261 264 267 268 269 268 268
208 209 209 209 209 208 209 209 211 212 214 215 216 216 215 214 214 215 218 221 225 229 230 231 231 230 229 228 225 224 223 223 223 224 226 227 227 228 229 230 232 233 235 235 236 237 237 238 238 240 242 245 248 252 255 257 259 257 255 255 256 258 261 264 266 268 270 273 274
207 208 208 208 209 209 210 210 211 212 213 213 213 213 213 212 213 215 218 221 224 226 228 229 229 229 228 226 223 222 221 221 221 222 223 225 226 227 228 229 230 231 232 233 234 235 237 239 241 243 244 247 249 252 255 257 259 260 259 257 257 258 260 263 266 269 272 275 278
206 207 208 209 209 210 211 211 211 212 212 212 211 211 211 211 211 213 216 219 221 224 226 227 227 226 225 222 220 218 218 217 218 218 220 222 223 224 225 225 226 228 229 231 233 236 239 242 244 245 247 248 250 252 254 256 258 259 259 258 259 260 263 266 268 271 273 276 278
204 206 208 208 209 209 209 210 212 212 212 212 211 210 210 210 210 211 213 217 220 222 223 223 223 222 220 217 214 213 212 211 212 213 215 216 217 218 219 221 223 226 229 232 235 239 242 245 247 249 250 251 252 253 254 256 259 260 261 262 262 264 267 269 270 271 271 272 272
204 204 205 206 205 206 207 209 210 211 212 212 211 211 211 210 210 210 213 216 218 219 218 217 216 215 214 211 208 206 206 205 206 207 209 211 213 215 217 220 223 226 230 233 237 240 243 245 248 250 251 253 253 254 255 256 257 258 259 260 261 262 263 263 264 264 264 265 265
202 203 203 203 202 203 205 207 209 209 210 211 211 212 212 212 210 210 211 213 214 214 212 209 209 209 208 204 203 202 201 201 202 204 207 210 212 215 217 219 222 224 228 232 235 238 240 242 243 244 246 247 248 248 249 249 248 247 246 247 249 253 256 258 261 263 263 264 265
199 200 200 200 200 202 204 207 208 209 209 210 211 212 212 212 210 209 209 209 209 208 206 205 205 205 203 201 201 200 199 199 200 202 205 208 210 212 214 215 217 220 223 227 231 234 235 236 235 236 238 239 240 242 243 241 237 236 238 241 244 249 256 261 265 267 268 269 269
196 196 197 197 198 201 203 206 207 208 208 209 210 210 211 210 209 207 206 204 203 203 203 204 204 202 200 200 199 198 196 196 197 199 201 203 205 206 208 210 212 215 218 223 227 231 233 234 234 236 237 239 240 242 243 243 241 242 246 250 254 258 263 268 270 271 272 273 273
194 194 194 195 196 199 201 203 204 206 207 208 208 208 207 208 207 203 200 199 200 201 203 205 203 200 199 199 197 195 193 193 194 195 196 197 199 202 204 207 208 210 214 220 226 231 235 237 238 238 239 239 240 242 245 249 252 255 258 263 267 271 275 277 277 277 277 277 278
192 192 193 194 195 197 199 200 201 202 204 204 204 204 204 204 202 197 194 196 198 201 203 204 203 201 200 199 196 194 192 192 194 195 196 197 199 202 204 206 207 210 214 221 227 232 235 237 238 239 239 241 243 246 250 255 259 262 266 270 275 278 281 283 284 284 285 286 286
190 190 191 192 194 195 197 198 198 199 200 201 200 200 200 199 194 192 192 195 197 199 201 202 202 201 200 199 197 194 193 193 195 197 198 200 202 204 205 207 210 213 218 223 228 232 235 238 240 242 245 249 253 256 259 261 264 268 272 276 281 284 287 289 292 294 295 296 296
188 188 190 191 192 194 195 196 196 197 198 197 196 196 194 191 189 190 192 195 196 197 198 198 197 197 197 198 198 197 196 196 198 200 201 203 204 206 208 210 213 216 220 224 229 233 237 241 246 250 254 257 260 263 265 267 271 275 279 284 287 290 293 296 299 301 302 302 302
186 187 189 190 191 192 193 194 195 195 195 193 192 189 187 186 187 190 192 193 195 195 194 191 189 190 192 196 200 201 202 202 203 204 205 206 207 209 211 213 216 218 221 225 230 234 239 243 248 252 256 258 261 264 268 271 276 281 285 288 291 293 296 298 301 303 304 304 304
185 187 189 190 191 191 192 192 193 193 191 188 185 183 183 185 187 189 190 191 191 190 187 184 184 187 191 196 201 204 207 208 209 210 211 211 213 215 216 218 219 221 223 227 232 236 240 243 246 249 252 256 260 264 268 273 279 283 287 290 293 296 298 301 303 304 305 305 305
183 186 188 190 190 190 190 190 190 189 187 182 180 181 184 187 188 189 189 190 187 183 181 182 186 189 193 196 200 205 208 212 214 216 217 218 220 222 223 224 225 226 229 232 236 239 242 244 247 250 253 257 262 267 272 278 283 288 293 296 299 302 304 305 305 306 306 306 306
183 185 187 188 189 189 189 189 188 185 181 177 178 182 186 188 188 188 189 189 187 183 182 185 190 194 196 198 200 205 209 213 216 218 219 220 222 225 228 230 232 234 237 240 242 245 247 249 252 257 262 267 273 278 283 287 293 298 301 304 305 306 306 306 305 305 305 306 306
183 185 186 187 188 188 188 187 185 181 177 176 180 185 188 188 188 189 190 190 190 188 188 191 194 197 198 199 202 206 211 213 213 213 213 214 217 222 227 233 237 240 242 244 246 249 252 255 261 267 274 281 286 290 293 297 301 304 305 306 305 305 305 304 304 305 305 306 306
183 184 185 186 187 186 185 184 182 178 176 177 182 186 188 188 189 190 191 192 192 193 194 195 197 198 199 201 204 209 212 213 210 206 205 207 211 219 226 233 238 241 243 244 245 249 254 261 270 278 285 289 293 296 299 301 304 305 305 305 304 304 303 304 304 306 306 307 307
181 183 184 185 185 184 182 181 178 176 175 178 183 187 189 190 190 191 192 193 194 195 196 197 199 200 201 203 206 210 213 212 208 204 203 207 212 219 227 233 237 240 242 244 247 253 261 271 279 286 289 291 293 296 298 300 302 304 304 304 304 303 303 304 305 307 308 308 307
180 181 182 183 183 181 178 176 175 175 176 179 184 188 190 190 190 191 193 195 195 195 195 195 198 201 203 205 208 211 212 211 208 207 208 212 216 223 229 234 237 242 246 250 257 265 273 281 286 288 289 291 292 294 297 299 300 300 300 301 301 302 303 304 305 306 307 307 307
180 180 180 180 180 177 174 172 172 175 178 181 186 189 191 190 189 190 192 194 195 195 194 194 197 200 204 207 209 210 210 210 210 211 214 218 221 226 231 236 240 246 252 261 270 278 283 287 288 288 289 290 292 295 297 298 296 294 294 295 298 301 302 303 304 305 306 306 306
179 178 177 177 176 173 171 170 172 176 180 184 187 189 190 188 187 187 189 192 194 195 195 196 198 201 204 206 207 208 208 208 211 215 218 221 223 227 232 237 242 249 257 267 275 282 286 286 284 283 284 287 291 294 295 294 293 293 295 298 300 301 301 301 302 303 305 306 306
177 176 175 173 172 170 169 170 174 177 181 185 188 188 187 186 185 185 186 188 192 195 198 200 202 203 203 204 204 205 205 208 213 218 221 222 223 227 231 236 242 249 256 263 270 275 278 278 278 279 282 285 289 291 291 292 294 297 300 302 303 302 301 300 302 304 307 308 310
175 174 172 171 170 168 169 171 176 180 183 185 186 186 185 184 184 184 186 188 192 197 201 203 204 204 203 203 204 206 208 211 215 219 221 222 224 227 231 234 238 243 248 252 257 262 268 274 279 283 286 289 291 292 293 296 298 301 302 303 303 303 302 304 306 308 310 313 316
173 171 170 169 167 167 169 174 179 183 185 185 185 184 184 183 184 186 189 192 195 198 201 203 203 203 203 205 208 210 212 215 217 219 221 224 226 228 230 233 236 239 240 244 250 260 272 282 288 292 295 299 300 300 300 300 301 301 303 304 304 304 305 307 310 313 315 318 323
171 169 168 167 167 168 172 178 182 184 185 185 185 184 184 184 186 189 192 195 197 198 199 200 201 202 204 207 210 213 215 217 219 220 223 226 228 231 235 239 239 240 242 247 257 272 286 296 302 306 309 310 308 305 303 301 301 301 303 304 305 306 308 311 314 317 321 326 335
169 167 166 166 168 172 176 181 184 185 186 186 186 185 185 186 189 191 194 196 197 197 197 197 199 202 205 208 211 213 215 217 219 221 224 226 230 234 240 243 243 244 247 255 268 282 294 303 309 314 314 312 308 304 301 300 300 302 303 303 304 307 310 315 318 323 330 340 352
167 167 167 169 172 176 179 182 185 186 187 187 187 186 187 188 190 192 194 195 196 196 197 198 200 202 205 207 210 212 213 216 218 221 223 227 232 238 242 242 240 240 246 258 271 282 292 299 304 306 306 303 300 299 300 301 303 305 306 306 307 312 318 324 330 340 350 359 4
168 169 171 173 176 178 181 183 185 187 188 188 188 188 188 189 191 192 194 195 196 197 199 200 201 202 204 206 209 212 215 217 218 220 223 229 232 234 233 232 232 237 247 258 268 276 284 290 294 295 295 295 295 298 302 308 312 314 314 316 321 328 336 343 352 2 8 11 9
171 173 175 176 178 180 182 184 187 188 189 189 189 189 189 190 191 192 193 195 197 198 198 199 200 200 202 205 209 213 216 218 218 220 223 224 225 225 225 227 234 246 257 264 267 271 275 279 280 281 282 285 291 299 309 318 324 326 327 332 341 350 0 8 14 18 18 16 12
174 176 177 178 180 181 184 186 188 189 190 190 190 189 190 191 192 192 193 194 196 197 197 197 198 199 201 204 208 211 214 217 219 219 218 217 220 223 227 234 244 255 263 265 266 267 269 267 265 263 266 274 287 301 315 326 334 339 344 352 2 11 18 22 24 23 21 17 13
177 178 180 181 182 184 186 188 189 190 190 190 190 190 191 192 192 192 191 192 193 194 195 195 196 199 202 206 209 211 213 217 219 217 213 214 219 225 230 233 234 237 240 243 247 252 254 254 253 253 257 268 286 305 323 338 347 356 5 13 20 24 26 27 26 23 19 13 7
180 181 182 184 185 187 188 189 189 190 190 190 189 190 191 192 192 191 190 190 191 192 193 194 196 200 203 207 211 214 215 216 215 212 209 210 214 214 208 194 183 197 214 223 229 233 237 241 244 246 249 259 285 323 345 2 13 21 26 30 31 32 30 27 23 19 13 6 357
183 184 185 187 188 189 189 189 189 190 190 189 189 189 189 191 191 191 191 191 191 191 192 193 196 199 203 206 210 213 215 213 210 206 204 203 200 192 180 170 182 204 216 219 218 218 219 223 226 220 207 178 95 39 35 39 41 41 41 40 39 36 31 26 20 13 5 356 344
186 187 188 189 190 190 190 190 189 189 188 188 188 188 188 188 188 190 191 192 192 192 193 194 196 199 202 206 209 212 212 209 204 199 197 195 188 180 174 180 196 208 211 208 204 201 197 191 180 163 144 119 93 77 68 62 56 52 49 46 42 37 31 24 15 6 356 344 334
188 190 191 191 191 191 190 189 188 188 187 187 187 187 187 187 187 189 191 193 193 193 194 195 197 200 203 207 209 210 208 203 198 194 191 186 177 176 184 195 200 200 197 193 189 182 170 156 144 134 121 104 93 83 76 69 62 56 50 46 41 34 28 18 9 359 347 336 328
189 190 191 192 191 190 189 188 187 187 187 187 186 186 186 187 188 189 191 194 195 195 195 196 197 199 202 205 207 206 202 198 193 187 179 174 175 184 194 198 196 192 186 181 173 161 148 137 129 120 112 102 94 86 77 67 60 53 47 41 35 29 23 14 3 351 339 330 324
188 189 190 190 190 189 187 187 186 186 186 187 186 186 186 187 188 190 191 193 194 195 196 197 197 197 199 201 201 200 197 193 185 176 171 176 183 190 194 194 189 182 175 167 157 147 137 129 123 116 111 103 95 85 73 62 55 48 42 35 29 25 17 7 354 341 332 324 320
186 187 187 188 188 187 187 186 185 185 185 186 186 186 187 188 189 190 190 191 192 193 194 195 194 194 194 194 194 193 189 185 178 175 177 183 186 187 186 184 179 172 163 155 146 139 133 128 123 117 112 103 94 81 66 55 49 44 37 29 22 17 10 356 341 329 321 319 320
Height
1462 1463 1464 1465 1466 1467 1468 1469 1471 1472 1473 1474 1475 1476 1477 1478 1479 1480 1481 1481 1482 1483 1484 1485 1486 1487 1488 1489 1490 1491 1492 1493 1494 1495 1497 1498 1499 1500 1501 1502 1503 1504 1505 1506 1507 1508 1509 1510 1511 1511 1512 1512 1513 1514 1515 1515 1515 1515 1515 1516 1515 1515 1516 1516 1517 1517 1517 1517 1517
1460 1461 1462 1464 1465 1466 1467 1469 1470 1471 1472 1473 1474 1475 1476 1477 1478 1479 1480 1481 1481 1482 1483 1484 1485 1486 1487 1488 1489 1490 1491 1492 1493 1494 1495 1497 1498 1499 1500 1501 1502 1503 1504 1505 1506 1507 1507 1508 1509 1510 1510 1511 1512 1513 1513 1513 1513 1513 1514 1514 1514 1514 1514 1515 1515 1516 1516 1516 1516
1458 1459 1461 1462 1463 1465 1466 1467 1468 1469 1470 1472 1473 1474 1475 1477 1477 1478 1479 1480 1481 1482 1483 1483 1484 1485 1487 1487 1488 1489 1490 1491 1492 1493 1495 1496 1497 1498 1499 1500 1501 1502 1503 1504 1505 1505 1506 1507 1507 1508 1509 1510 1511 1512 1512 1512 1512 1512 1512 1513 1513 1513 1513 1514 1514 1514 1514 1514 1514
1456 1457 1459 1460 1462 1463 1464 1465 1467 1468 1469 1470 1472 1473 1475 1476 1477 1478 1478 1479 1480 1481 1482 1483 1484 1485 1486 1487 1487 1488 1490 1491 1492 1493 1494 1495 1496 1497 1498 1499 1500 1501 1502 1503 1503 1504 1505 1506 1507 1507 1508 1509 1510 1510 1511 1511 1511 1511 1512 1512 1512 1512 1512 1512 1512 1513 1513 1513 1512
1454 1456 1457 1458 1460 1461 1462 1464 1465 1467 1468 1469 1471 1472 1474 1475 1476 1477 1478 1479 1479 1480 1481 1482 1483 1484 1485 1486 1487 1488 1489 1490 1491 1492 1493 1494 1495 1496 1497 1498 1499 1500 1501 1502 1502 1503 1503 1504 1506 1507 1507 1508 1509 1509 1509 1510 1510 1510 1510 1510 1510 1510 1511 1511 1511 1511 1512 1512 1511
1452 1454 1456 1457 1459 1460 1462 1463 1464 1465 1467 1468 1470 1471 1473 1474 1475 1476 1477 1477 1478 1479 1481 1482 1482 1483 1484 1485 1486 1487 1488 1489 1490 1491 1492 1493 1494 1495 1496 1497 1498 1499 1500 1501 1501 1502 1503 1504 1505 1506 1506 1507 1507 1507 1508 1508 1508 1509 1509 1509 1509 1509 1510 1510 1510 1510 1510 1510 1509
1451 1453 1454 1456 1458 1459 1460 1462 1463 1464 1466 1467 1469 1470 1472 1473 1474 1475 1476 1477 1478 1479 1480 1481 1482 1482 1483 1484 1485 1486 1487 1488 1489 1491 1492 1492 1493 1494 1495 1496 1497 1498 1499 1500 1500 1501 1502 1503 1504 1505 1505 1506 1506 1506 1506 1507 1507 1507 1507 1508 1508 1508 1508 1508 1508 1508 1508 1508 1507
1450 1452 1453 1455 1457 1458 1459 1460 1462 1463 1465 1466 1468 1469 1471 1472 1473 1474 1475 1476 1477 1478 1479 1480 1481 1482 1482 1484 1485 1486 1487 1487 1488 1489 1490 1491 1492 1493 1494 1496 1497 1497 1498 1499 1499 1500 1501 1502 1503 1503 1504 1504 1504 1505 1505 1505 1506 1506 1506 1506 1507 1507 1507 1506 1507 1507 1507 1506 1506
1450 1451 1452 1454 1456 1457 1458 1459 1461 1462 1464 1465 1467 1468 1470 1471 1472 1474 1475 1476 1477 1477 1478 1479 1480 1481 1482 1483 1484 1485 1486 1487 1487 1488 1489 1491 1492 1493 1494 1495 1496 1497 1497 1498 1499 1499 1500 1501 1502 1502 1502 1502 1503 1503 1503 1504 1504 1504 1504 1504 1504 1505 1505 1505 1505 1505 1505 1505 1504
1448 1450 1452 1453 1455 1456 1457 1458 1460 1462 1463 1465 1467 1468 1469 1471 1472 1473 1474 1475 1476 1477 1477 1478 1479 1481 1482 1483 1483 1484 1485 1486 1487 1488 1489 1490 1491 1492 1493 1494 1495 1496 1496 1497 1498 1498 1499 1500 1500 1500 1501 1502 1502 1502 1502 1502 1503 1503 1503 1503 1503 1503 1503 1503 1504 1503 1503 1503 1503
1447 1449 1450 1452 1453 1455 1456 1457 1459 1461 1462 1464 1466 1467 1468 1470 1471 1472 1473 1474 1475 1476 1477 1477 1479 1480 1481 1482 1483 1484 1485 1486 1487 1487 1488 1489 1490 1491 1492 1493 1494 1495 1496 1496 1497 1497 1498 1498 1499 1499 1500 1500 1501 1501 1501 1502 1502 1502 1502 1502 1502 1502 1502 1502 1502 1502 1502 1502 1502
1446 1448 1450 1451 1452 1454 1455 1457 1458 1460 1462 1464 1465 1467 1468 1469 1471 1472 1472 1473 1474 1475 1476 1477 1478 1479 1480 1481 1482 1483 1484 1485 1486 1487 1488 1489 1490 1491 1491 1492 1493 1494 1495 1496 1496 1497 1497 1497 1498 1498 1499 1499 1499 1500 1500 1501 1501 1501 1501 1501 1501 1502 1502 1502 1502 1502 1502 1501 1501
1446 1447 1449 1450 1452 1453 1454 1456 1457 1459 1461 1463 1464 1466 1467 1468 1470 1471 1471 1472 1473 1474 1476 1477 1478 1479 1480 1480 1481 1482 1483 1484 1485 1486 1487 1488 1489 1490 1491 1492 1492 1493 1494 1495 1495 1496 1496 1497 1497 1497 1498 1498 1499 1499 1500 1500 1500 1500 1500 1501 1501 1501 1501 1501 1501 1501 1501 1500 1500
1445 1447 1448 1449 1451 1452 1453 1455 1457 1459 1461 1462 1464 1465 1467 1468 1469 1469 1470 1471 1473 1474 1475 1476 1477 1478 1479 1479 1480 1481 1482 1484 1485 1486 1487 1487 1488 1489 1490 1491 1492 1492 1493 1494 1494 1495 1495 1496 1496 1497 1497 1497 1498 1498 1499 1499 1499 1500 1500 1500 1500 1500 1500 1500 1500 1500 1499 1499 1499
1444 1445 1447 1448 1449 1451 1452 1454 1456 1458 1460 1462 1463 1464 1466 1467 1468 1468 1469 1471 1472 1473 1475 1476 1477 1477 1478 1478 1479 1481 1482 1483 1484 1485 1486 1487 1488 1488 1489 1490 1491 1492 1492 1493 1493 1494 1494 1495 1495 1496 1496 1497 1497 1498 1498 1499 1499 1499 1499 1499 1499 1499 1499 1499 1498 1498 1498 1498 1497
1443 1444 1446 1447 1448 1450 1452 1454 1456 1457 1459 1461 1462 1464 1465 1466 1467 1468 1469 1471 1472 1473 1474 1475 1475 1476 1477 1478 1479 1480 1482 1483 1484 1485 1486 1486 1487 1488 1489 1489 1490 1491 1492 1492 1492 1493 1494 1494 1495 1495 1496 1496 1497 1497 1498 1498 1499 1499 1499 1498 1498 1498 1498 1497 1497 1497 1497 1497 1496
1442 1443 1444 1446 1447 1449 1451 1453 1455 1457 1458 1460 1462 1462 1463 1464 1466 1467 1469 1470 1471 1472 1473 1473 1474 1475 1476 1477 1479 1480 1481 1482 1483 1484 1485 1486 1487 1487 1488 1489 1490 1490 1491 1492 1492 1492 1493 1493 1494 1495 1495 1496 1497 1497 1497 1498 1498 1498 1498 1497 1497 1497 1497 1496 1496 1496 1496 1495 1495
1440 1442 1443 1445 1447 1448 1451 1452 1454 1456 1458 1459 1461 1461 1462 1463 1465 1467 1468 1469 1470 1471 1471 1472 1473 1474 1476 1477 1478 1479 1480 1481 1482 1484 1485 1485 1486 1487 1487 1488 1489 1490 1490 1491 1491 1492 1492 1493 1494 1494 1495 1496 1496 1497 1497 1497 1497 1497 1497 1496 1496 1496 1496 1495 1495 1494 1494 1494 1493
1439 1441 1442 1444 1446 1448 1450 1452 1454 1456 1457 1458 1459 1460 1461 1463 1464 1466 1467 1468 1469 1469 1470 1472 1473 1475 1476 1477 1478 1479 1480 1481 1482 1483 1484 1485 1485 1486 1487 1487 1488 1489 1490 1491 1491 1492 1492 1493 1493 1494 1495 1495 1496 1496 1496 1496 1496 1496 1495 1495 1495 1495 1494 1494 1494 1493 1493 1492 1492
1438 1440 1442 1444 1446 1447 1450 1452 1453 1455 1457 1457 1458 1459 1460 1462 1464 1465 1466 1467 1468 1469 1470 1472 1473 1474 1476 1477 1478 1478 1480 1481 1482 1482 1483 1484 1484 1485 1486 1487 1488 1489 1490 1490 1491 1492 1492 1492 1493 1494 1494 1495 1495 1495 1495 1495 1495 1495 1494 1494 1494 1493 1493 1493 1492 1492 1492 1491 1490
1437 1439 1441 1443 1445 1447 1449 1451 1453 1454 1456 1457 1457 1458 1460 1462 1463 1464 1465 1466 1467 1469 1471 1472 1473 1474 1475 1476 1477 1478 1479 1480 1481 1482 1482 1483 1484 1485 1486 1487 1488 1488 1489 1490 1491 1491 1492 1492 1493 1494 1494 1494 1494 1494 1494 1494 1494 1494 1493 1493 1493 1492 1492 1492 1491 1491 1490 1490 1489
1437 1439 1441 1443 1445 1447 1449 1451 1452 1454 1455 1456 1456 1457 1459 1461 1463 1464 1465 1466 1467 1469 1471 1472 1473 1474 1474 1475 1476 1477 1478 1479 1481 1481 1482 1483 1484 1485 1486 1487 1487 1488 1489 1489 1490 1491 1492 1492 1493 1493 1493 1493 1493 1493 1493 1493 1493 1493 1492 1492 1492 1492 1491 1491 1490 1490 1489 1489 1488
1437 1439 1441 1443 1445 1447 1449 1451 1452 1453 1454 1455 1455 1457 1459 1461 1462 1464 1465 1466 1467 1469 1470 1471 1472 1473 1473 1474 1475 1477 1478 1479 1480 1481 1482 1483 1484 1485 1486 1487 1487 1488 1488 1489 1490 1491 1491 1492 1492 1492 1492 1492 1492 1492 1492 1492 1492 1492 1492 1492 1491 1491 1490 1490 1489 1489 1488 1488 1487
1437 1439 1441 1443 1445 1447 1449 1450 1451 1452 1453 1453 1454 1456 1458 1460 1462 1463 1464 1465 1467 1468 1469 1470 1471 1472 1472 1474 1475 1477 1477 1479 1479 1480 1481 1483 1484 1485 1486 1487 1487 1488 1488 1489 1490 1490 1491 1491 1491 1491 1492 1492 1492 1491 1491 1491 1491 1491 1490 1490 1490 1489 1489 1488 1488 1488 1487 1487 1487
1436 1438 1440 1442 1444 1446 1448 1449 1450 1451 1452 1452 1454 1456 1458 1460 1461 1462 1464 1465 1466 1467 1468 1468 1469 1471 1472 1474 1475 1477 1477 1478 1479 1480 1481 1482 1484 1485 1486 1487 1487 1488 1488 1489 1489 1490 1490 1490 1490 1490 1491 1491 1491 1491 1490 1490 1490 1489 1489 1489 1488 1488 1487 1487 1487 1487 1487 1486 1486
1436 1438 1440 1442 1444 1446 1447 1448 1449 1450 1450 1452 1453 1456 1457 1459 1460 1462 1463 1463 1464 1465 1466 1467 1469 1471 1473 1474 1475 1476 1477 1478 1479 1480 1481 1482 1483 1484 1486 1487 1487 1488 1488 1489 1489 1489 1490 1490 1490 1490 1490 1490 1490 1490 1489 1489 1488 1488 1488 1487 1487 1487 1487 1486 1486 1486 1486 1485 1485
1435 1437 1439 1442 1443 1445 1447 1447 1447 1448 1449 1451 1453 1455 1457 1458 1459 1461 1461 1462 1463 1465 1466 1468 1470 1471 1472 1474 1474 1475 1476 1477 1478 1480 1481 1482 1483 1484 1485 1486 1487 1487 1488 1488 1488 1489 1489 1489 1489 1489 1489 1489 1489 1489 1488 1488 1487 1487 1487 1487 1486 1486 1486 1486 1485 1485 1485 1485 1484
1435 1437 1439 1441 1443 1444 1445 1445 1446 1447 1448 1451 1452 1454 1456 1457 1458 1459 1460 1462 1463 1465 1467 1468 1470 1471 1472 1473 1474 1475 1476 1477 1478 1480 1481 1482 1483 1484 1485 1486 1486 1487 1487 1487 1488 1488 1488 1488 1488 1488 1488 1488 1488 1488 1487 1487 1487 1486 1486 1486 1486 1486 1485 1485 1485 1485 1484 1484 1484
1434 1437 1438 1440 1442 1442 1443 1444 1445 1446 1448 1450 1452 1454 1455 1456 1457 1459 1460 1462 1463 1465 1466 1468 1469 1470 1472 1472 1474 1475 1476 1477 1478 1479 1481 1482 1483 1484 1485 1485 1486 1486 1487 1487 1487 1487 1487 1487 1487 1488 1488 1488 1487 1487 1487 1486 1486 1486 1486 1486 1485 1485 1485 1485 1485 1484 1484 1484 1484
1434 1436 1437 1438 1439 1440 1442 1443 1444 1446 1447 1450 1451 1453 1454 1456 1457 1459 1460 1462 1463 1465 1466 1467 1468 1470 1471 1472 1473 1474 1476 1477 1478 1479 1481 1482 1483 1483 1484 1485 1485 1486 1486 1487 1487 1487 1487 1487 1487 1487 1487 1487 1487 1487 1486 1486 1486 1486 1485 1485 1485 1485 1485 1484 1484 1484 1484 1483 1483
1433 1434 1436 1437 1438 1439 1441 1442 1444 1445 1447 1449 1451 1452 1454 1455 1457 1459 1460 1462 1463 1465 1466 1467 1468 1470 1471 1472 1473 1474 1475 1477 1478 1479 1481 1482 1482 1483 1484 1484 1485 1485 1486 1486 1486 1486 1486 1486 1487 1487 1487 1486 1486 1486 1486 1485 1485 1485 1485 1485 1484 1484 1484 1484 1484 1484 1483 1483 1483
1432 1433 1434 1435 1437 1438 1440 1441 1443 1445 1447 1448 1450 1452 1453 1455 1457 1459 1460 1462 1463 1465 1466 1467 1468 1470 1471 1472 1473 1474 1475 1477 1478 1479 1480 1481 1482 1483 1483 1484 1484 1484 1485 1485 1485 1485 1486 1486 1486 1486 1486 1485 1485 1485 1485 1485 1485 1485 1484 1484 1484 1484 1484 1484 1484 1483 1483 1483 1483
1430 1431 1432 1434 1436 1437 1439 1441 1442 1444 1446 1448 1450 1452 1453 1455 1457 1458 1460 1462 1463 1464 1466 1467 1468 1470 1471 1472 1473 1474 1475 1477 1478 1479 1480 1481 1482 1482 1482 1483 1483 1484 1484 1484 1484 1485 1485 1485 1485 1485 1485 1485 1485 1485 1485 1485 1484 1484 1484 1484 1484 1484 1484 1484 1483 1483 1483 1483 1483
1428 1430 1432 1433 1435 1436 1438 1440 1442 1444 1446 1448 1450 1452 1453 1455 1457 1458 1460 1462 1463 1464 1466 1467 1468 1469 1471 1472 1473 1474 1475 1477 1477 1479 1479 1480 1481 1482 1482 1482 1482 1483 1483 1484 1484 1484 1484 1484 1484 1484 1484 1484 1485 1485 1484 1484 1484 1484 1484 1484 1484 1484 1483 1483 1483 1483 1483 1483 1484
1427 1429 1431 1432 1434 1436 1437 1440 1442 1444 1446 1448 1450 1452 1453 1455 1457 1458 1460 1461 1462 1464 1465 1467 1468 1469 1471 1472 1473 1474 1475 1476 1477 1478 1479 1480 1480 1481 1481 1482 1482 1482 1482 1483 1483 1483 1483 1483 1484 1484 1484 1484 1484 1484 1484 1484 1484 1484 1484 1484 1484 1483 1483 1483 1483 1483 1484 1484 1484
1427 1428 1430 1432 1434 1436 1437 1440 1442 1444 1446 1448 1450 1452 1453 1455 1457 1458 1459 1461 1462 1463 1465 1466 1468 1469 1470 1471 1472 1474 1475 1476 1477 1478 1479 1479 1480 1480 1481 1481 1481 1482 1482 1482 1482 1483 1483 1483 1483 1484 1484 1484 1484 1484 1484 1484 1484 1484 1484 1483 1483 1483 1483 1483 1484 1484 1484 1484 1484
1427 1428 1430 1432 1434 1436 1438 1440 1442 1444 1446 1448 1450 1451 1453 1455 1456 1458 1459 1461 1462 1463 1465 1466 1467 1469 1470 1471 1472 1473 1475 1476 1477 1477 1478 1478 1479 1479 1480 1480 1481 1481 1482 1482 1482 1482 1483 1483 1483 1483 1484 1484 1484 1484 1484 1484 1483 1483 1483 1483 1483 1483 1484 1484 1484 1484 1484 1484 1484
1427 1428 1430 1432 1434 1436 1438 1440 1442 1444 1446 1447 1449 1451 1453 1454 1456 1457 1459 1460 1462 1463 1464 1466 1467 1468 1470 1471 1472 1473 1474 1475 1476 1477 1477 1478 1478 1479 1480 1480 1480 1481 1481 1482 1482 1482 1482 1483 1483 1483 1483 1483 1483 1483 1483 1483 1483 1483 1483 1483 1483 1484 1484 1484 1484 1484 1484 1484 1484
1427 1429 1431 1432 1434 1436 1438 1440 1442 1444 1445 1447 1449 1451 1453 1454 1456 1457 1459 1460 1462 1463 1464 1466 1467 1468 1470 1471 1472 1472 1473 1474 1475 1476 1477 1477 1478 1479 1479 1480 1480 1481 1481 1481 1482 1482 1482 1483 1483 1483 1483 1483 1483 1483 1483 1483 1483 1483 1483 1483 1484 1484 1484 1484 1484 1484 1484 1484 1484
1427 1429 1431 1433 1435 1436 1438 1440 1442 1443 1445 1447 1449 1451 1452 1454 1455 1457 1458 1460 1462 1463 1464 1466 1467 1468 1469 1471 1471 1472 1473 1474 1475 1476 1477 1477 1478 1478 1479 1479 1480 1480 1481 1481 1482 1482 1482 1482 1483 1483 1483 1483 1483 1483 1483 1483 1483 1483 1483 1483 1484 1484 1484 1484 1484 1484 1484 1484 1484
1427 1429 1431 1433 1435 1436 1438 1440 1442 1443 1445 1447 1449 1451 1452 1453 1455 1457 1458 1460 1461 1463 1464 1466 1467 1468 1469 1470 1471 1472 1472 1473 1474 1475 1476 1477 1477 1478 1478 1479 1480 1480 1481 1481 1482 1482 1482 1482 1482 1482 1483 1483 1483 1483 1483 1483 1483 1483 1483 1483 1484 1484 1484 1484 1484 1484 1484 1484 1484